Overview Statistics Trail Chart Weather Telemetry Raw packets
 

This is the latest recevied weather packets stored in our database for station/object N9BID. If no packets are shown the sender has not sent any weather packets the latest 10 day(s).

<< 107 108 109 110 111 112 113 >>
Time Temp. Humidity Pressure Rain* Wind** Luminosity Snow
1787755844 19.44° C 93% 1011.6 hPa 0 mm - 439 W/m² -
1787755543 19.44° C 94% 1011.7 hPa 0 mm - 188 W/m² -
1787755238 18.89° C 95% 1011.8 hPa 0 mm - 432 W/m² -
1787754937 18.89° C 94% 1011.7 hPa 0 mm - 243 W/m² -
1787754633 18.89° C 96% 1011.6 hPa 0 mm - 236 W/m² -
1787754330 18.89° C 96% 1011.8 hPa 0 mm - 189 W/m² -
1787754026 18.89° C 97% 1011.7 hPa 0 mm - 378 W/m² -
1787753724 18.33° C 98% 1011.7 hPa 0 mm - 340 W/m² -
1787753424 18.33° C 99% 1011.8 hPa 0 mm - 184 W/m² -
1787753122 18.33° C 99% 1011.8 hPa 0 mm - 140 W/m² -
1787752818 17.78° C 99% 1011.9 hPa 0 mm - 160 W/m² -
1787752517 17.78° C 99% 1011.9 hPa 0 mm - 127 W/m² -
1787752213 17.78° C 99% 1011.9 hPa 0 mm - 147 W/m² -
1787751915 17.22° C 99% 1011.8 hPa 0 mm - 245 W/m² -
1787751606 17.22° C 99% 1011.8 hPa 0 mm - 121 W/m² -
1787751301 17.22° C 99% 1011.7 hPa 0 mm - 88 W/m² -
1787750997 17.22° C 99% 1011.8 hPa 0 mm - 102 W/m² -
1787750692 17.22° C 99% 1011.8 hPa 0 mm - 84 W/m² -
1787750392 16.67° C 99% 1011.8 hPa 0 mm - 95 W/m² -
1787750086 16.67° C 99% 1012 hPa 0 mm - 124 W/m² -
1787749783 16.67° C 99% 1011.7 hPa 0 mm - 72 W/m² -
1787749484 16.67° C 99% 1011.8 hPa 0 mm - 77 W/m² -
1787749183 16.67° C 99% 1011.9 hPa 0 mm - 81 W/m² -
1787748878 16.11° C 99% 1011.9 hPa 0 mm - 71 W/m² -
1787748573 16.11° C 99% 1011.8 hPa 0 mm - 60 W/m² -

* Rain latest hour (hover to see other rain measurements)
** Current wind speed in m/s (hover to see current wind gust speed)